Weather History for KPSM - February, 2014

Change the Weather History Date:

Saturday, February 1, 2014

  Actual Average Record
Temperature  
Mean Temperature 34 °F -  
Max Temperature 41 °F 32 °F 64 °F (1989)
Min Temperature 26 °F 16 °F 1 °F (1978)
Degree Days  
Heating Degree Days 32    
Moisture  
Dew Point 22 °F    
Average Humidity 62    
Maximum Humidity 74    
Minimum Humidity 39    
Precipitation  
Precipitation 0.00 in - - ()
Sea Level Pressure  
Sea Level Pressure 30.23 in    
Wind  
Wind Speed 5 mph (SSW)    
Max Wind Speed 13 mph    
Max Gust Speed -    
Visibility 10 miles    
Events      
Averages and records for this station are not official NWS values.
T = Trace of Precipitation, MM = Missing Value Source: NWS Daily Summary

Daily Weather History Graph

Daily Weather History Graph

Search for Another Location

Airport or City:

Trip Planner

Search our weather history database for the weather conditions in past years. The results will help you decide how hot, cold, wet, or windy it might be!

Date:

Astronomy

Feb. 01, 2014 Rise Set
Actual Time 6:58 AM EST 4:55 PM EST
Civil Twilight 6:28 AM EST 5:25 PM EST
Nautical Twilight 5:54 AM EST 5:59 PM EST
Astronomical Twilight 5:21 AM EST 6:33 PM EST
Moon 7:41 AM EST (2/1) 7:32 PM EST (2/1)
Length of Visible Light 10h 57m
Length of Day
9h 57m
Waxing Crescent, 5% of the Moon is Illuminated
Feb 1
Waxing Crescent
Feb 6
First Quarter
Feb 14
Full
Feb 22
Last Quarter
Mar 1
New

Hourly Weather History & Observations

Time (EST) Temp. Windchill Dew Point Humidity Pressure Visibility Wind Dir Wind Speed Gust Speed Precip Events Conditions
12:58 AM 29.8 °F 26.3 °F 18.5 °F 63% 30.21 in 10.0 mi WSW 3.5 mph - N/A   Overcast
1:56 AM 30.2 °F 25.4 °F 17.8 °F 60% 30.22 in 10.0 mi SW 4.6 mph - N/A   Mostly Cloudy
2:56 AM 28.4 °F 24.6 °F 17.8 °F 64% 30.23 in 10.0 mi SW 3.5 mph - N/A   Mostly Cloudy
3:58 AM 27.3 °F 22.0 °F 19.0 °F 71% 30.26 in 10.0 mi WSW 4.6 mph - N/A   Mostly Cloudy
4:58 AM 28.6 °F 22.4 °F 18.5 °F 66% 30.26 in 10.0 mi West 5.8 mph - N/A   Overcast
5:58 AM 26.6 °F 22.6 °F 18.5 °F 71% 30.28 in 10.0 mi West 3.5 mph - N/A   Overcast
6:58 AM 27.1 °F 18.9 °F 19.8 °F 74% 30.31 in 10.0 mi WSW 8.1 mph - N/A   Overcast
7:58 AM 28.2 °F 21.0 °F 18.7 °F 67% 30.33 in 10.0 mi West 6.9 mph - N/A   Overcast
8:58 AM 31.6 °F - 19.2 °F 60% 30.34 in 10.0 mi NW 1.2 mph - N/A   Overcast
9:58 AM 35.6 °F - 20.1 °F 53% 30.33 in 10.0 mi WSW 2.3 mph - N/A   Overcast
10:58 AM 37.6 °F 35.1 °F 19.8 °F 49% 30.32 in 10.0 mi West 3.5 mph - N/A   Overcast
11:58 AM 40.1 °F 36.9 °F 19.2 °F 43% 30.31 in 10.0 mi WSW 4.6 mph - N/A   Overcast
12:58 PM 41.9 °F - 18.5 °F 39% 30.27 in 10.0 mi Calm Calm - N/A   Overcast
1:58 PM 39.9 °F 34.5 °F 22.6 °F 50% 30.24 in 10.0 mi East 8.1 mph - N/A   Overcast
2:58 PM 37.8 °F 29.8 °F 23.4 °F 56% 30.26 in 10.0 mi SE 12.7 mph - N/A   Overcast
3:58 PM 36.9 °F 30.1 °F 24.8 °F 62% 30.23 in 10.0 mi SE 9.2 mph - N/A   Overcast
4:58 PM 36.5 °F 29.7 °F 26.4 °F 67% 30.23 in 10.0 mi SE 9.2 mph - N/A   Overcast
5:58 PM 36.5 °F 30.3 °F 28.0 °F 71% 30.21 in 10.0 mi SSE 8.1 mph - N/A   Overcast
6:58 PM 37.2 °F 30.6 °F 27.1 °F 67% 30.21 in 10.0 mi South 9.2 mph - N/A   Overcast
7:58 PM 36.9 °F 30.7 °F 25.5 °F 64% 30.16 in 10.0 mi SSE 8.1 mph - N/A   Overcast
8:58 PM 36.7 °F 31.2 °F 24.6 °F 62% 30.14 in 10.0 mi South 6.9 mph - N/A   Overcast
9:58 PM 34.9 °F - 24.1 °F 65% 30.11 in 10.0 mi South 2.3 mph - N/A   Overcast
10:58 PM 34.2 °F 29.0 °F 24.8 °F 69% 30.06 in 10.0 mi SE 5.8 mph - N/A   Overcast
11:58 PM 34.5 °F 30.4 °F 27.0 °F 74% 30.03 in 10.0 mi South 4.6 mph - N/A   Overcast